STARLINK-34906, 65896

Orbit data source: Space-Track

STARLINK-34906, 65896 is a payload satellite owned by SpaceX/Seattle (US) in LEO that was launched on Tue, 07 Oct 2025 UTC via an FALCON 9 launch vehicle from the Air Force Eastern Test Range (AFETR). Payload-class satellites include a variety of spacecraft equipped with specific instruments for various scientific and technological missions. These include communications satellites like Starlink; space stations such as the ISS; scientific satellites like the Hubble; Earth observation satellites from companies like Planet Labs, Umbra, and HawkEye 360; GPS; miniature CubeSats for education and research; and military/defense satellites.

Loading next visibility...
Identifier
65896, 2025-224Q
Orbit
LEO
Country
Flag of USUS
Related business
Manufacturer
SpaceX/Seattle
Mission
Operational Commercial Communications
Bus & Motor
STARLINK V2MO, Unknown motor
Mass
575 kg wet, ~530 kg dry
Launch date (UTC)
2025-10-07 (5 months ago)
Launch vehicle
FALCON 9
Launch site
Air Force Eastern Test Range (AFETR)
Object type
Payload
Rocket body
Debris
Shape & HBR
Box + 2 Pan, 17.7 m
Radar Cross Section
36.964 m²

Expand to show TLE details & history
Last TLE update: 10 hours ago

TLE from 10 hours ago
0 STARLINK-34906
1 65896U 25224Q   26062.15852864  .00025081  00000-0  85594-3 0  9994
2 65896  53.1589  41.7281 0001115  81.2217 278.8910 15.30204840 23871
Epoch: 2026-03-03T03:48Z
TLE epoch observation values (Epoch: 2026-03-03T03:48:16.874Z)
Latitude
-0.00002°
Longitude
-176.28383°
Altitude
475.982 km
Speed
7.629 km/s
True Right ascension
02h 46m 54s
True Declination
0° 00' 00"
Sunlit
Object was in daylight at epoch
Visualization orbit readout
Latitude
Unknown
Longitude
Unknown
Altitude
Unknown
Speed
Unknown
Apparent Right ascension
Unknown
Apparent Declination
Unknown
Sunlit
N/A
Visualization observer readout
Local Sidereal Time
17:48:18
Azimuth
Unknown
Elevation
Unknown
Doppler factor
Unknown
Orbital elements
Apogee altitude
476.221 km
Perigee altitude
474.693 km
Semi-major axis
6,853.594 km
Eccentricity
0.00011
Inclination
53.1589°
RAAN
41.7281°
Arg. of periapsis
81.2217°
True anomaly
278.87838°
Mean anomaly
278.891°
Eccentric anomaly
278.88469°
Mean motion
3.8253 °/min
Orbital period
94.11 mins
BSTAR
0.00085594
Loading maneuver chart data...
Computing Atmospheric mass density...
Loading historical data...
Loading historical data...
Loading historical data...
Loading historical data...
Loading historical data...
Loading historical data...
Loading historical data...

Documentation

Showing up to 5 results
|